Home   Weather   Niederkassel   Past weeks

Flag for Germany Past Weather in Niederkassel, North Rhine-Westphalia, Germany — Yesterday and Last 2 Weeks

Now
47 °F

Overcast.


Feels Like: 45 °F
Forecast: 35 / 55 °F
Wind: 5 mph from West

Location: Aachen-Orsbach

Current Time: Apr 28, 2017 at 8:14:07 pm

Latest Report: Apr 28, 2017 at 7:00 pm


Visibility: 18 mi

Pressure: 29.99 "Hg

Humidity: 72%

Dew Point: 39 °F

Location of NiederkasselLocation

Past Weather in Niederkassel — Graph

°F

Niederkassel Temperature Yesterday

Maximum temperature yesterday: 48 °F (at 3:00 pm)
Minimum temperature yesterday: 34 °F (at 7:00 am)
Average temperature yesterday: 41 °F

High & Low Weather Summary for the Past Weeks

 TemperatureHumidityPressure
High56 °F (Apr 24, 4:00 pm)98% (Apr 15, 12:00 pm)30.65 "Hg (Apr 15, 12:00 pm)
Low31 °F (Apr 26, 7:00 am)35% (Apr 20, 4:00 pm)29.72 "Hg (Apr 25, 3:00 am)
Average43 °F70%30.17 "Hg
* Reported Apr 13 7:00 pm — Apr 28 7:00 pm, Niederkassel, Weather by CustomWeather, © 2017

Note: Actual official high and low records may vary slightly from our data, if they occured in-between our weather recording intervals... More about our weather records

Advertising

Niederkassel Weather History for the Previous 24 Hours

Scroll right to see more
 ConditionsComfort  
Time TempWeatherWind HumidityBarometerVisibility
7:00 pm
Fri, Apr 28
47 °FOvercast.5 mph72%29.99 "Hg18 mi
6:00 pm48 °FOvercast.3 mph66%29.98 "Hg25 mi
4:00 pm50 °FPartly sunny.6 mph66%29.96 "Hg22 mi
3:00 pm47 °FSprinkles. Overcast.6 mph73%29.96 "Hg19 mi
2:00 pmN/APassing clouds.5 mphN/AN/A6 mi
1:00 pm48 °FPartly sunny.5 mph73%29.96 "Hg16 mi
12:00 pm43 °FOvercast.5 mph80%29.97 "Hg9 mi
10:00 am41 °FOvercast.6 mph75%29.97 "Hg12 mi
9:00 am38 °FOvercast.5 mph78%29.98 "Hg9 mi
8:00 amN/APassing clouds.3 mphN/AN/A18 mi
7:00 am35 °FPassing clouds.5 mph85%29.97 "Hg11 mi
6:00 am35 °FPassing clouds.5 mph84%29.98 "Hg9 mi
4:00 am33 °FClear.5 mph88%30.00 "Hg5 mi
3:00 am33 °FPassing clouds.3 mph86%30.01 "Hg6 mi
1:00 am35 °FClear.3 mph86%30.02 "Hg8 mi
12:00 am36 °FPassing clouds.3 mph84%30.03 "Hg12 mi
10:00 pm
Thu, Apr 27
41 °FOvercast.1 mph80%30.03 "Hg16 mi
9:00 pm40 °FOvercast.3 mph82%30.03 "Hg18 mi
Weather by CustomWeather, © 2017

See weather overviewHow to use our weather pages